Location: Hope
(40.9110°N, 74.9680°W)
Time: 15:28:58
(UTC-05:00)

N. Korean satellite - Pass Details

Date: 31 January 2019
Orbit: 456 x 510 km, 97.2° (Epoch: 20 February)

Event Time Altitude Azimuth Distance (km) Brightness Sun altitude
Rises 18:28:58 0° 209° (SSW) 2,598 10.9 -14.1°
Reaches altitude 10° 18:31:53 10° 235° (SW) 1,724 10.4 -14.6°
Maximum altitude 18:33:55 14° 268° (W) 1,489 10.2 -15.0°
Drops below altitude 10° 18:35:57 10° 301° (WNW) 1,735 10.1 -15.4°
Sets 18:38:55 0° 328° (NNW) 2,626 10.6 -15.9°
